{"data":{"norad_id":52344,"epoch":"2026-09-20T01:46:40.683072Z","epoch_age_seconds":96424,"freshness":"FRESH","line1":"1 52344U 22045P   26263.07408198 -.00000838  00000+0 -13682-4 0  9991","line2":"2 52344  53.1607  37.6074 0000873  86.7190 273.3912 15.34384947245240","mean_motion":15.34384947,"eccentricity":8.73e-5,"inclination_deg":53.1607,"raan_deg":37.6074,"arg_perigee_deg":86.719,"mean_anomaly_deg":273.3912,"bstar":-1.3682e-5,"rev_number":24524,"period_min":93.848678769657,"perigee_km":462.15077200229,"apogee_km":463.34519052002,"semimajor_km":6840.8849812612,"source":"CELESTRAK","updated_at":"2026-09-20T09:00:40.023402Z"}}